Location: Cardeilhac
(43.1985°N, 0.6831°E)
Time: 11:15:32
(UTC+00:00)

Daily predictions for brighter satellites

Satellite Brightness Start Highest point End
(mag) Time Altitude Azimuth Time Altitude Azimuth Time Altitude Azimuth
SL-16 R/B 3.3 19:10:33 10° SSE 19:14:53 23° E 19:19:15 10° NE
Okean O Rocket 3.7 19:17:53 10° ENE 19:18:53 11° ENE 19:19:53 10° NE
CZ-4 R/B 1.9 19:20:07 10° SE 19:23:32 35° ENE 19:26:55 10° N
SPOT 5 2.7 19:22:40 10° SSE 19:27:09 66° ENE 19:31:29 10° N
NOSS 3-4 (A) 4.0 19:22:45 10° SW 19:27:54 56° NW 19:33:34 10° NNE
NOSS 3-4 (C) 4.0 19:23:15 10° SW 19:28:25 57° NW 19:34:08 10° NNE
Cosmos 1656 Rocket 4.2 19:27:11 10° NNW 19:32:21 41° ENE 19:37:23 11° SE
Cosmos 1025 Rocket 4.2 19:29:43 10° NNE 19:33:14 24° ENE 19:36:27 11° SE
Helios 1A Rocket 2.8 19:31:29 10° NNE 19:34:30 37° E 19:37:29 10° S
Cosmos 1733 Rocket 3.0 19:30:34 10° S 19:34:53 66° E 19:39:16 10° NNE
CZ-4B R/B 3.8 19:31:24 10° SSE 19:35:04 59° ENE 19:38:53 10° N
Terra 2.6 19:32:19 10° SE 19:36:28 32° ENE 19:40:38 10° N
SJ-6B 3.9 19:33:32 10° S 19:37:00 42° W 19:40:27 10° NNW
Cosmos 2242 Rocket 3.6 19:33:07 10° N 19:37:32 62° E 19:41:52 10° SSE
BREEZE-M DEB (TANK) 3.3 19:35:57 10° NW 19:38:21 33° NNE 19:42:53 10° E
IRAS Rocket 4.2 19:34:10 10° SSE 19:39:37 73° ENE 19:45:05 10° NNW
Gblst 52 Del rocket 4.5 19:34:57 10° WSW 19:40:45 86° NNW 19:47:24 10° ENE
Resurs 01 Rocket 3.8 19:37:17 10° SSW 19:40:59 27° W 19:44:43 10° NW
Cosmos 1821 Rocket 4.0 19:35:13 10° S 19:41:25 68° E 19:47:44 10° NNE
Cosmos 2237 Rocket 2.9 19:36:52 10° SW 19:42:28 60° WNW 19:48:08 10° NNE
Meteor 2-15 4.5 19:37:17 10° S 19:43:20 89° ESE 19:49:29 10° N
Cosmos 2218 Rocket 4.1 19:41:19 10° S 19:47:27 79° W 19:53:39 10° N
CSL-04 Rocket 3.8 19:42:43 10° SSE 19:48:16 85° WSW 19:53:50 10° NNW
Meteor 2-15 Rocket 4.4 19:44:47 10° S 19:50:48 74° E 19:56:55 10° NNE
BREEZE-M DEB (TANK) 4.0 19:49:52 10° WNW 19:51:56 26° N 19:55:14 10° ENE
Cosmos 1346 Rocket 3.2 19:49:41 10° N 19:53:03 36° ENE 19:55:10 19° SE
SL-4 R/B 2.9 19:53:08 10° S 19:56:10 23° SE 19:57:34 19° ESE
Cosmos 1400 Rocket 2.7 19:52:51 10° SSW 19:56:26 76° W 20:00:04 10° N
BREEZE-M DEB (TANK) 3.8 19:53:04 10° SSW 19:56:38 39° ESE 20:06:43 10° NE
OAO 3 Rocket 4.3 19:52:55 10° WSW 19:56:52 27° S 19:59:27 17° SE
Cosmos 1812 0.6 19:56:46 22° SSW 19:57:38 72° W 19:59:17 10° N
Meteor 1-31 Rocket 2.8 19:56:11 10° S 19:59:41 69° WSW 20:03:12 10° NNW
Cosmos 1602 4.4 19:58:27 10° NNE 19:59:37 16° ENE 19:59:37 16° ENE
TIMED 4.5 19:56:48 10° NNW 20:01:05 83° WSW 20:04:50 13° SSE
Cosmos 1943 Rocket 4.1 19:57:32 10° NW 20:02:17 28° WSW 20:06:59 10° SSW
ASTEX 1 4.2 19:59:47 18° SE 20:02:43 33° ENE 20:07:07 10° NNE
Gbstr 26 Del rocket 4.1 19:58:27 10° SSW 20:03:08 29° SE 20:06:31 13° E
USA 59 Rocket 0.1 20:00:35 10° NW 20:04:09 69° SW 20:07:46 16° SSE
Feng Yun 1-1 Rocket 4.2 20:00:11 10° SSE 20:05:41 85° ENE 20:11:08 10° NNW
Cosmos 1869 4.2 20:06:01 23° E 20:06:25 24° E 20:09:18 10° NE
ADEOS 3.6 20:06:32 16° SSE 20:10:44 66° ENE 20:15:55 10° N
Cosmos 2369 Rocket 2.8 20:06:41 10° NNW 20:11:56 40° ENE 20:14:59 22° ESE
USA 186 3.2 20:14:08 15° NE 20:14:08 15° NE 20:14:59 10° NNE
CBERS 1 LM4 rocket 4.3 20:10:01 15° SSE 20:13:59 83° ENE 20:18:47 10° NNW
MOS 1 4.3 20:10:24 11° SSE 20:15:52 90° WSW 20:21:34 10° NNW
SL-08 R/B 3.4 20:11:01 10° NNE 20:15:53 59° E 20:20:41 10° S
Cosmos 2285 Rocket 4.0 20:12:33 10° S 20:18:49 62° ESE 20:25:04 10° NNE
Cosmos 2221 Rocket 3.7 20:16:15 10° N 20:20:36 53° E 20:22:40 28° SE
YAOGAN 11 4.4 20:17:02 10° NNE 20:21:08 42° E 20:23:06 26° SSE
USA 234 3.2 20:14:43 10° NE 20:21:17 75° SE 20:27:50 10° SW
SKYMED 3 4.2 20:19:54 10° NNE 20:23:49 87° ESE 20:27:42 10° SSW
Cosmos 405 Rocket 4.0 20:23:00 10° NNE 20:24:26 17° NE 20:24:26 17° NE
Cosmos 1943 3.8 20:23:24 24° SE 20:25:44 33° ESE 20:30:44 10° NE
Molniya-1 2.9 20:24:33 10° SW 20:27:02 86° NW 20:31:42 10° NE
CZ-4B R/B 4.2 20:27:35 19° ENE 20:27:35 19° ENE 20:29:49 10° NNE
CZ-4B R/B 3.3 20:23:42 16° SSE 20:28:20 84° WSW 20:34:01 10° NNW
Cosmos 2278 Rocket 4.4 20:25:02 10° NW 20:29:11 21° W 20:33:19 10° SSW
SL-8 R/B 4.1 20:26:40 10° W 20:31:21 62° NNW 20:36:02 10° ENE
OAO 2 Rocket 4.2 20:29:09 10° WSW 20:33:43 32° S 20:34:48 29° SSE
SL-08 R/B 4.5 20:28:04 10° N 20:34:16 67° E 20:38:00 25° SSE
Cosmos 1975 Rocket 4.2 20:31:59 10° NNE 20:35:43 26° ENE 20:35:59 25° E
ERS-1 Rocket 3.5 20:33:54 14° S 20:38:09 56° W 20:43:06 10° NNW
Cosmos 1674 Rocket 4.3 20:37:55 10° NNW 20:42:07 50° W 20:45:17 17° SSW
Cosmos 2263 4.5 20:37:38 10° NNW 20:43:09 53° ENE 20:45:15 35° ESE
Cosmos 2292 Rocket 3.7 20:41:46 10° NNW 20:45:45 54° W 20:47:05 32° SSW
Okean-O 2.5 20:44:32 43° SSE 20:45:55 77° ENE 20:50:18 10° N
Cosmos 2298 Rocket 4.1 20:42:29 10° SSW 20:47:47 77° WNW 20:53:07 10° NNE
Cosmos 1908 Rocket 3.8 20:45:39 15° SSW 20:49:12 66° W 20:53:30 10° N
Cosmos 44 4.4 20:44:26 10° SW 20:49:19 48° NW 20:54:29 10° NNE
NOSS 2-1 (E) 4.5 20:48:30 10° NW 20:51:55 36° WSW 20:53:26 28° SSW
Okean O Rocket 1.5 20:53:05 45° S 20:54:24 83° W 20:58:45 10° NNW
BREEZE-M DEB (TANK) 4.4 20:51:16 10° WNW 20:56:00 30° SW 20:56:25 29° SW
CZ-4B R/B 3.8 20:55:25 40° E 20:56:05 43° ENE 21:00:34 10° N
CZ-4 R/B 3.9 20:55:20 10° SW 20:57:39 16° W 20:59:59 10° NW
Ariane Rocket 3.5 20:57:13 38° E 20:57:58 40° ENE 21:02:39 10° N
SL-16 R/B 3.0 20:53:02 10° SW 20:58:33 53° WNW 21:04:07 10° NNE
Cosmos 1782 Rocket 3.3 20:58:39 59° SSE 20:59:23 78° E 21:03:42 10° N
Cosmos 1934 Rocket 4.0 20:54:46 14° S 21:00:15 83° W 21:06:29 10° N
Geosat 4.2 20:57:15 10° NNE 21:02:15 71° WNW 21:07:12 10° SW
Spot 2 Rocket 3.7 21:03:20 36° S 21:05:21 67° WSW 21:10:21 10° NNW
USA 245 3.9 21:05:18 56° SE 21:06:11 70° ENE 21:11:38 10° N
Cosmos 1269 Rocket 4.1 21:04:21 10° NNW 21:09:33 57° ENE 21:10:20 52° ESE
ATLAS 5 CENTAUR R/B 3.6 21:07:26 10° N 21:10:10 17° NE 21:11:03 16° NE
Cosmos 1140 Rocket 3.4 21:07:00 10° NNW 21:12:07 65° ENE 21:12:46 59° ESE
Terra 3.5 21:10:46 14° SSW 21:13:58 27° W 21:17:59 10° NW
NOSS 3-1 (C) 4.0 21:12:20 10° NW 21:19:37 86° SW 21:23:02 42° SSE
Cosmos 967 Rocket 4.5 21:14:24 10° NW 21:20:52 76° WSW 21:22:39 49° SSE
Cosmos 1862 4.3 21:20:41 10° N 21:22:56 35° NNE 21:22:56 35° NNE
Cosmos 1447 Rocket 4.5 21:20:34 10° N 21:26:46 63° E 21:27:42 56° ESE
Cosmos 2058 3.7 21:24:45 10° N 21:27:31 42° NNE 21:27:31 42° NNE
Cosmos 407 Rocket 4.0 21:24:08 10° N 21:28:57 43° ENE 21:28:57 43° ENE
SL-4 R/B 3.6 21:29:28 10° WSW 21:31:14 25° WSW 21:31:14 25° WSW
Cosmos 371 Rocket 4.2 21:29:11 10° N 21:33:16 36° NE 21:33:16 36° NE
COSMOS 2455 3.0 21:34:43 10° NNW 21:40:39 58° NE 21:41:17 55° E
SJ 16-02 2.9 21:37:57 10° N 21:40:32 25° NE 21:40:32 25° NE
Cosmos 1315 Rocket 4.1 21:43:33 36° WNW 21:43:33 36° WNW 21:46:45 10° N
SPOT 3 Rocket 3.9 21:48:49 53° WSW 21:49:18 55° W 21:54:23 10° NNW
Gbstr 26 Del rocket 3.6 21:44:22 10° WSW 21:48:40 55° WNW 21:48:40 55° WNW
Cosmos 1605 Rocket 4.3 21:47:33 37° SW 21:49:52 60° W 21:55:57 10° N
Lacrosse 5 rocket 3.6 21:51:47 10° NNW 21:52:47 15° N 21:52:47 15° N
Cosmos 2369 Rocket 3.4 21:50:57 10° NW 21:55:47 31° WSW 21:56:46 29° WSW
SeaSat 1 4.2 21:56:42 21° NE 21:56:50 21° NE 22:00:29 10° N
Cosmos 2173 Rocket 4.1 22:03:21 57° ENE 22:03:21 57° ENE 22:08:44 10° NNE
USA 234 4.4 21:57:57 10° NE 22:04:01 42° NNW 22:10:06 10° W
Cosmos 1603 3.7 22:07:59 77° N 22:07:59 77° N 22:13:19 10° NNE
Cosmos 921 Rocket 4.2 22:03:35 10° NNW 22:06:41 39° WNW 22:06:41 39° WNW
Cosmos 1943 4.4 22:04:58 13° WSW 22:09:38 39° WNW 22:14:56 10° NNE
Meteor 2-3 Rocket 4.1 22:09:22 10° N 22:14:03 53° NE 22:14:03 53° NE
NOSS 3-1 (A) 4.0 22:12:03 10° NW 22:19:27 81° WSW 22:20:42 67° S
Cosmos 2100 Rocket 3.9 22:26:44 80° NNW 22:26:44 80° NNW 22:32:36 10° N
Cosmos 1656 4.2 22:40:12 10° NNW 22:44:20 53° NNW 22:44:20 53° NNW
ATLAS 3B R/B 4.3 22:45:23 10° NNW 22:52:18 32° NE 22:55:41 23° ENE
ATLAS 5 CENTAUR R/B 3.5 22:48:13 10° NW 22:50:11 28° NW 22:50:11 28° NW
Cosmos 1833 Rocket 4.0 23:01:17 31° NE 23:01:17 31° NE 23:04:14 10° NNE
Cosmos 1725 Rocket 4.3 23:08:52 62° NW 23:08:52 62° NW 23:14:27 10° N
Cosmos 2233 Rocket 4.3 23:18:32 62° N 23:18:32 62° N 23:23:41 10° N
SJ 16-02 4.0 23:16:07 10° NW 23:17:02 15° NW 23:17:02 15° NW
ATLAS 2AS CENTAUR R/B 2.9 23:25:29 66° NNE 23:25:29 66° NNE 23:31:15 10° NE
CZ-2C R/B 4.1 23:29:07 32° NE 23:29:07 32° NE 23:32:55 10° N
SeaSat 1 4.1 23:36:18 28° NW 23:36:18 28° NW 23:38:40 10° NNW
ACS3 Solar Sail 3.7 23:41:49 10° NE 23:44:47 17° ENE 23:44:47 17° ENE
Cosmos 1697 Rocket 3.8 23:43:32 10° NNW 23:47:06 41° NNW 23:47:06 41° NNW
